AirNav   Pilot Hours Calculator
 
 1457 users online  

60NH Sherwood Forest Inc Heliport
Freedom, New Hampshire, USA

GOING TO FREEDOM?


FAA INFORMATION EFFECTIVE 31 DECEMBER 2020

Location

FAA Identifier: 60NH
Lat/Long: 43-48-31.0000N 071-05-30.0000W
43-48.516667N 071-05.500000W
43.8086111,-71.0916667
(estimated)
Elevation: 433 ft. / 132 m (estimated)
From city: 3 miles W of FREEDOM, NH
Time zone: UTC -5 (UTC -4 during Daylight Saving Time)
Zip code: 03836

Heliport Operations

Heliport use: Private use. Permission required prior to landing
Activation date: 12/2015
Control tower: no
ARTCC: BOSTON CENTER
FSS: BANGOR FLIGHT SERVICE STATION
Attendance: UNATNDD
Wind indicator: yes
Segmented circle: no

Heliport Communications

WX ASOS at IZG (13 nm NE): 135.775 (207-935-2882)

Nearby radio navigation aids

VOR radial/distance  VOR name  Freq  Var
ENEr335/31.0KENNEBUNK VOR/DME117.1017W

 
NDB name  Hdg/Dist  Freq  Var  ID
ROLLINS358/37.126016WESG . ... --.

Heliport Services

Runway Information

Helipad H1

Dimensions: 300 x 300 ft. / 91 x 91 m
Surface: turf
Traffic pattern: leftleft

Heliport Ownership and Management from official FAA records

Ownership: Privately-owned
Owner: DAVID M. SOLOMON
73 WOOSTER ST UNIT 4B
NEW YORK, NY 10012
Phone 212-902-5051
Manager: DAVID M. SOLOMON
73 WOOSTER ST UNIT 4B
NEW YORK, NY 10012
Phone 212-902-5051

Additional Remarks

HEL LDG ZONE IS AT LEAST 300 FT BY 300 FT, FLAT GRASS FLD.
FOR CD CTC PORTLAND APCH AT 207-874-7320, WHEN APCH CLSD CTC BOSTON ARTCC AT 603-879-6859.

Instrument Procedures

There are no published instrument procedures at 60NH.

Some nearby airports with instrument procedures:

KIZG - Eastern Slopes Regional Airport (13 nm NE)
KLCI - Laconia Municipal Airport (20 nm SW)
KSFM - Sanford Seacoast Regional Airport (30 nm SE)
KDAW - Skyhaven Airport (32 nm S)
81B - Oxford County Regional Airport (34 nm NE)
 
Loc | Ops | Rwys | IFR | FBO | Links
Com | Nav | Svcs | Stats | Notes
Aerial photo
No photo
 
Airport distance calculator
Flying to Sherwood Forest Inc Heliport? Find the distance to fly.

From to 60NH

Sunrise and sunset
Times for 15-Jan-2021
 Local
(UTC-5)
 Zulu
(UTC)
Morning civil twilight06:4411:44
Sunrise07:1612:16
Sunset16:3121:31
Evening civil twilight17:0322:03

Current date and time
Zulu (UTC)  15-Jan-2021 17:06:28
Local (UTC-5)  15-Jan-2021 12:06:28
 
METAR
KIZG 
12nm NE 
151654Z AUTO 00000KT 10SM CLR 04/M04 A3006 RMK AO2 SLP185 T00391044
KCWN 
13nm N 
151558Z AUTO 01003KT 10SM CLR M03/M20 A3006 RMK AO2 SLP139 T10341200 PWINO FZRANO $
KLCI 
20nm SW 
151656Z AUTO 07007KT 10SM CLR 04/M03 A3004 RMK AO2 SLP179 T00391033
TAF
KPWM 
36nm E 
151129Z 1512/1612 VRB03KT P6SM BKN040 FM151500 05006KT P6SM SCT040 FM152000 11006KT P6SM SCT250 FM160400 VRB03KT P6SM OVC015
KHIE 
39nm NW 
151129Z 1512/1612 00000KT P6SM OVC040 FM160800 13007KT P6SM OVC025
KCON 
41nm SW 
151442Z 1515/1612 00000KT P6SM BKN035 FM152000 12005KT P6SM BKN040 FM160800 00000KT 4SM -SNRA OVC015
NOTAMs
Click for the latest NOTAMs
NOTAMs are issued by the DoD/FAA and will open in a separate window not controlled by AirNav.

 

 
 

Would you like to see your business listed on this page?

 If your business provides an interesting product or service to pilots, flight crews, aircraft, or users of the Sherwood Forest Inc Heliport, you should consider listing it here.  To start the listing process, click on the button below
 
Add a business
 

Other Pages about Sherwood Forest Inc Heliport

Update a link
 
Copyright © AirNav, LLC. All rights reserved. Privacy Policy  Contact